| time (UTC) | temp F | wind direction | speed knots | gust knots | rain 1hr in | rain 24hr in | rain mn in | humidity % | barometer mb |
| 20260505041520 | 70 | 0.0 | 0.9 | 0.00 | 0.31 | 0.14 | 53 | 1018.7 | |
| 20260505040522 | 70 | 0.0 | 0.9 | 0.00 | 0.31 | 0.14 | 53 | 1018.8 | |
| 20260505035521 | 70 | 0.0 | 0.9 | 0.00 | 0.31 | 0.14 | 52 | 1018.8 | |
| 20260505034522 | 70 | 0.0 | 1.7 | 0.00 | 0.31 | 0.14 | 50 | 1019.0 | |
| 20260505033702 | 71 | 248 | 0.9 | 1.7 | 0.00 | 0.31 | 0.14 | 52 | 1019.0 |
| 20260505032701 | 71 | 248 | 0.9 | 1.7 | 0.00 | 0.31 | 0.14 | 51 | 1019.0 |
| 20260505031520 | 71 | 0.0 | 0.9 | 0.00 | 0.31 | 0.14 | 55 | 1018.9 | |
| 20260505030521 | 71 | 0.0 | 0.9 | 0.00 | 0.31 | 0.14 | 51 | 1019.3 | |
| 20260505025522 | 70 | 0.0 | 1.7 | 0.00 | 0.31 | 0.14 | 58 | 1019.2 | |
| 20260505024521 | 70 | 0.0 | 1.7 | 0.00 | 0.31 | 0.14 | 59 | 1019.3 | |
| 20260505023521 | 69 | 0.0 | 1.7 | 0.00 | 0.31 | 0.14 | 64 | 1019.6 | |
| 20260505022843 | 69 | 0.0 | 0.9 | 0.00 | 0.31 | 0.14 | 62 | 1019.8 | |
| 20260505021522 | 70 | 0.0 | 0.9 | 0.00 | 0.31 | 0.14 | 62 | 1020.0 | |
| 20260505020703 | 70 | 0.0 | 0.9 | 0.00 | 0.31 | 0.14 | 62 | 1020.4 | |
| 20260505015521 | 70 | 0.0 | 0.9 | 0.00 | 0.31 | 0.14 | 62 | 1020.5 | |
| 20260505014521 | 69 | 0.0 | 0.0 | 0.00 | 0.31 | 0.14 | 61 | 1020.5 | |
| 20260505013522 | 69 | 0.0 | 0.0 | 0.00 | 0.31 | 0.14 | 66 | 1020.7 | |
| 20260505012522 | 69 | 0.0 | 0.0 | 0.00 | 0.31 | 0.14 | 63 | 1020.9 | |
| 20260505011701 | 69 | 0.0 | 0.0 | 0.00 | 0.31 | 0.14 | 61 | 1020.9 | |
| 20260505010521 | 69 | 0.0 | 0.0 | 0.00 | 0.31 | 0.14 | 64 | 1020.9 | |
| 20260505005522 | 68 | 0.0 | 0.0 | 0.00 | 0.31 | 0.14 | 70 | 1021.0 | |
| 20260505004524 | 68 | 0.0 | 0.0 | 0.00 | 0.31 | 0.14 | 73 | 1021.2 | |
| 20260505003521 | 67 | 0.0 | 0.0 | 0.00 | 0.31 | 0.14 | 75 | 1021.3 | |
| 20260505002521 | 66 | 0.0 | 0.0 | 0.00 | 0.31 | 0.14 | 78 | 1021.2 | |
| 20260505001521 | 66 | 0.0 | 0.0 | 0.00 | 0.31 | 0.14 | 84 | 1021.3 | |
| 20260505000521 | 65 | 0.0 | 0.0 | 0.00 | 0.31 | 0.14 | 87 | 1021.3 | |
| 20260504235521 | 64 | 0.0 | 0.0 | 0.00 | 0.31 | 0.14 | 90 | 1021.2 | |
| 20260504234523 | 63 | 0.0 | 0.0 | 0.00 | 0.31 | 0.14 | 94 | 1021.1 | |
| 20260504233703 | 62 | 0.0 | 0.0 | 0.00 | 0.31 | 0.14 | 95 | 1021.2 | |
| 20260504232520 | 61 | 0.0 | 0.0 | 0.00 | 0.31 | 0.14 | 97 | 1021.0 | |
| 20260504231521 | 62 | 0.0 | 0.0 | 0.00 | 0.31 | 0.14 | 98 | 1020.9 | |
| 20260504230523 | 61 | 0.0 | 0.0 | 0.00 | 0.31 | 0.14 | 98 | 1020.7 | |
| 20260504225521 | 61 | 0.0 | 0.0 | 0.00 | 0.31 | 0.14 | 98 | 1020.9 | |
| 20260504224521 | 61 | 0.0 | 0.0 | 0.00 | 0.31 | 0.14 | 98 | 1020.8 | |
| 20260504223521 | 60 | 0.0 | 0.0 | 0.00 | 0.31 | 0.14 | 98 | 1020.6 | |
| 20260504222521 | 59 | 0.0 | 0.0 | 0.00 | 0.31 | 0.14 | 98 | 1020.7 | |
| 20260504221522 | 59 | 0.0 | 0.0 | 0.00 | 0.31 | 0.14 | 98 | 1020.5 | |
| 20260504220521 | 59 | 0.0 | 0.0 | 0.00 | 0.31 | 0.14 | 98 | 1020.2 | |
| 20260504215522 | 60 | 0.0 | 0.0 | 0.00 | 0.31 | 0.14 | 99 | 1020.1 | |
| 20260504214521 | 60 | 0.0 | 0.0 | 0.00 | 0.31 | 0.14 | 99 | 1019.8 | |
| 20260504213521 | 59 | 0.0 | 0.0 | 0.00 | 0.31 | 0.14 | 99 | 1019.7 | |
| 20260504212521 | 59 | 0.0 | 0.0 | 0.00 | 0.31 | 0.14 | 99 | 1019.5 | |
| 20260504211524 | 60 | 0.0 | 0.0 | 0.00 | 0.31 | 0.14 | 99 | 1019.4 | |
| 20260504210521 | 60 | 0.0 | 0.0 | 0.00 | 0.31 | 0.14 | 99 | 1019.0 | |
| 20260504205521 | 59 | 0.0 | 0.0 | 0.00 | 0.31 | 0.14 | 99 | 1019.1 | |
| 20260504204521 | 59 | 0.0 | 0.0 | 0.00 | 0.31 | 0.14 | 98 | 1018.8 | |
| 20260504203702 | 59 | 0.0 | 0.0 | 0.00 | 0.31 | 0.14 | 98 | 1018.7 | |
| 20260504202521 | 59 | 0.0 | 0.0 | 0.00 | 0.31 | 0.14 | 98 | 1018.6 | |
| 20260504201521 | 60 | 0.0 | 0.0 | 0.00 | 0.31 | 0.14 | 98 | 1018.7 | |
| 20260504200520 | 60 | 0.0 | 0.0 | 0.00 | 0.31 | 0.14 | 98 | 1018.6 | |
| 20260504195702 | 61 | 0.0 | 0.0 | 0.00 | 0.31 | 0.14 | 98 | 1018.3 | |
| 20260504194520 | 62 | 0.0 | 0.0 | 0.00 | 0.31 | 0.14 | 98 | 1018.5 | |
| 20260504193522 | 62 | 0.0 | 0.0 | 0.00 | 0.31 | 0.14 | 99 | 1018.3 | |
| 20260504192521 | 62 | 0.0 | 0.0 | 0.00 | 0.31 | 0.14 | 98 | 1018.3 | |
| 20260504191522 | 62 | 0.0 | 0.0 | 0.00 | 0.31 | 0.14 | 99 | 1018.3 | |
| 20260504190522 | 62 | 0.0 | 0.0 | 0.00 | 0.31 | 0.14 | 99 | 1018.2 | |
| 20260504185521 | 62 | 0.0 | 0.0 | 0.00 | 0.31 | 0.14 | 98 | 1018.4 | |
| 20260504184521 | 62 | 0.0 | 0.0 | 0.00 | 0.31 | 0.14 | 98 | 1018.3 | |
| 20260504183701 | 62 | 0.0 | 0.0 | 0.00 | 0.31 | 0.14 | 98 | 1018.3 | |
| 20260504182522 | 62 | 0.0 | 0.0 | 0.00 | 0.31 | 0.14 | 98 | 1018.2 | |
| 20260504181842 | 62 | 0.0 | 0.0 | 0.00 | 0.31 | 0.14 | 98 | 1018.1 | |
| 20260504180701 | 62 | 0.0 | 0.0 | 0.00 | 0.31 | 0.14 | 98 | 1018.1 | |
| 20260504175521 | 62 | 0.0 | 0.0 | 0.00 | 0.31 | 0.14 | 98 | 1018.0 | |
| 20260504174521 | 62 | 0.0 | 0.0 | 0.00 | 0.31 | 0.14 | 98 | 1017.8 | |
| 20260504173522 | 62 | 0.0 | 0.0 | 0.00 | 0.31 | 0.14 | 98 | 1017.7 | |
| 20260504172521 | 62 | 0.0 | 0.0 | 0.00 | 0.31 | 0.14 | 98 | 1017.8 | |
| 20260504171701 | 62 | 0.0 | 0.0 | 0.00 | 0.31 | 0.14 | 98 | 1017.7 | |
| 20260504170521 | 62 | 0.0 | 0.0 | 0.00 | 0.31 | 0.14 | 98 | 1017.6 | |
| 20260504150521 | 63 | 0.0 | 0.0 | 0.03 | 0.20 | 0.03 | 97 | 1018.7 | |
| 20260504140520 | 62 | 0.0 | 0.0 | 0.00 | 0.17 | 0.00 | 97 | 1017.9 | |
| 20260504130701 | 63 | 0.0 | 0.0 | 0.01 | 0.17 | 0.17 | 97 | 1017.7 | |
| 20260504110521 | 63 | 0.0 | 0.0 | 0.00 | 0.16 | 0.16 | 96 | 1018.1 | |
| 20260504100521 | 63 | 0.0 | 0.0 | 0.03 | 0.16 | 0.16 | 95 | 1018.1 | |
| 20260504081522 | 65 | 0.0 | 0.0 | 0.02 | 0.12 | 0.12 | 93 | 1017.4 | |
| 20260504080523 | 65 | 0.0 | 0.0 | 0.03 | 0.12 | 0.12 | 93 | 1017.4 | |
| 20260504050522 | 70 | 0.0 | 0.0 | 0.02 | 0.02 | 0.02 | 84 | 1016.7 | |
| 20260504045523 | 70 | 0.0 | 0.0 | 0.02 | 0.02 | 0.02 | 82 | 1016.6 |